Starlink 2329

operational
NORAD ID: 47873 Int'l Des: 2021-021 Owner: SPXS Country: US Constellation: starlink
LEOCIRCULARSTARLINK_TYPE

Über Starlink 2329

Beschreibung wird geladen...

Live-Position

3D-Globus wird geladen...

Nächste Überflüge

Höhenverlauf

Altitude vs Time

uPlot chart will show altitude changes over time

Zweizeiliger Elementsatz

1 47873U 21021P 25257.53409633 .00003579 00000-0 25896-3 0 9996
2 47873 53.0552 332.4102 0001262 90.2471 269.8663 15.06413808249775
Epoch: 14. Sept. 2025 • Age: 22 hours

Aktueller Status

Höhe 547.5 km
Geschwindigkeit 7.59 km/s
Subsatellitenpunkt 4.43°N, 169.86°E
Startdatum 14. März 2021
Alter 4.5 years
Typ internet

Technische Details

Klassifizierung Payload
Masse 260.00 kg
Trockenmasse 248.00 kg
Gesamtmasse 260.00 kg
Länge 0.20 m
Durchmesser 2.80 m
Spannweite 9.00 m
Form Box + pan
Hersteller SPXS
Bus-Typ Starlink
Phasenstatus In Orbit
Besitzer/Staat SPXS/US

Große Konstellationen

Loading constellations...